[[{"header":{"parameterUnit":"m.s-1","parameterCategory":1,"la1":30.2991,"la2":30.254,"lo1":-89.0895,"lo2":-89.0444,"dy":0.0017,"dx":0.0017,"nx":28,"ny":28,"refTime":"2023-09-23T09:00:00:Z","depth":0,"parameterNumber":2,"parameterNumberName":"U-component_of_WINDS"},"data":[0,0,0,0,0,0,0,0,0,0,0,0,0,0,0,0,0,0,0,0,0,0,0,0,0,0,0,0,0,0,0,0,0,0,0,0,0,0,0,0,0,0,0,0,0,0,0,0,0,0,0,0,0,0,0,0,0,0,1.3676,1.3676,0,1.3655,1.3655,1.3655,1.362,1.362,1.3619,1.3619,1.3596,1.3596,1.3596,0,0,0,0,0,0,0,0,0,0,0,0,0,1.3683,1.3683,1.3676,1.3676,1.3676,1.3655,1.3655,1.3655,1.362,1.362,1.3619,1.3618,1.3596,1.3596,1.3596,0,0,0,0,0,0,0,0,0,0,0,0,0,1.3673,1.3683,1.3676,1.3656,1.3654,1.3655,1.3655,1.3655,1.3621,1.362,1.3619,1.3618,1.3596,1.3596,1.3596,1.3614,0,0,1.3596,1.3596,0,0,0,0,0,0,0,0,1.3673,1.3672,1.3659,1.3657,1.3655,1.3639,1.3649,1.3641,1.3621,1.3633,1.3618,1.3617,1.3611,1.361,1.3608,1.3613,1.3612,1.3596,1.3595,1.3595,1.3595,0,0,0,0,0,0,0,1.3674,1.3673,1.3668,1.3659,1.3657,1.3647,1.3644,1.3647,1.3628,1.3632,1.363,1.3628,1.361,1.3608,1.3607,1.3612,1.3596,1.3595,1.3595,1.3595,1.3627,1.3628,0,0,0,0,0,0,1.3678,1.3674,1.3668,1.3667,1.3662,1.3648,1.3645,1.3645,1.3627,1.3624,1.3629,1.3626,1.3608,1.3607,1.3606,1.3624,1.3595,1.3595,1.3595,1.3626,1.3627,1.3628,0,0,0,0,0,0,1.3678,1.3678,1.3669,1.367,1.3668,1.3648,1.3649,1.3646,1.3644,1.3625,1.3621,1.363,1.3608,1.3606,1.3612,1.3622,1.3595,1.3595,1.3625,1.3627,1.3628,1.3661,0,0,0,0,0,0,1.3679,1.3678,1.3686,1.367,1.3668,1.3677,1.365,1.3646,1.3644,1.3641,1.3626,1.3622,1.3607,1.3612,1.3612,1.3622,1.3595,1.3624,1.3626,1.3628,1.3659,1.3664,1.3667,0,0,0,0,0,1.3679,1.3697,1.3687,1.3686,1.3678,1.3677,1.3676,1.3658,1.3645,1.3652,1.3639,1.3623,1.3622,1.3613,1.3612,1.3623,1.3623,1.3625,1.3627,1.3657,1.3663,1.3667,0,0,0,0,0,0,1.3715,1.3695,1.3683,1.3697,1.3689,1.3672,1.368,1.3665,1.3661,1.3658,1.3635,1.3632,1.364,1.3632,1.3623,1.3638,1.362,1.3622,1.3643,1.3648,1.3652,1.3653,1.3595,0,0,0,0,0,1.3724,1.3727,1.3708,1.3722,1.3719,1.37,1.3699,1.3686,1.3677,1.3673,1.3661,1.3652,1.3649,1.3648,1.3645,1.3658,1.3652,1.3665,1.3669,1.3672,1.3674,1.3676,1.3681,1.3635,1.3635,1.3635,0,0,1.3744,1.3733,1.3736,1.3729,1.3721,1.3722,1.3698,1.3701,1.3701,1.3674,1.3677,1.3668,1.3657,1.3665,1.3668,1.3658,1.3685,1.3675,1.3678,1.3677,1.3679,1.3683,1.3687,1.3636,1.3636,1.3636,0,0,1.378,1.3773,1.3782,1.3774,1.3763,1.375,1.3752,1.3736,1.3729,1.3733,1.3711,1.371,1.3707,1.3699,1.3694,1.3723,1.3707,1.3723,1.3744,1.3747,1.3751,1.3754,1.3762,1.3765,1.3725,1.3725,1.3725,0,1.3806,1.3807,1.3788,1.3792,1.3788,1.3763,1.3771,1.3764,1.3752,1.3749,1.3739,1.3732,1.3723,1.3727,1.3734,1.3732,1.3732,1.3724,1.3752,1.3755,1.3757,1.3765,1.3768,1.3727,1.3727,1.3726,1.3726,0,1.3838,1.3839,1.3847,1.3836,1.3833,1.3839,1.3819,1.3818,1.3804,1.3792,1.3794,1.3782,1.3774,1.3774,1.3762,1.3776,1.377,1.3756,1.3737,1.3764,1.377,1.3773,1.3729,1.3729,1.3728,1.3728,0,0,1.3896,1.3872,1.3876,1.3868,1.3853,1.3853,1.3856,1.3848,1.3847,1.3839,1.3839,1.3836,1.3822,1.3817,1.3802,1.3805,1.3825,1.379,1.379,1.3795,1.3837,1.3846,1.385,1.3815,1.3815,1.3816,1.3837,0,1.3927,1.3932,1.3914,1.3922,1.3922,1.3897,1.3899,1.3889,1.3877,1.3873,1.3859,1.3856,1.384,1.3836,1.3838,1.3823,1.3833,1.3821,1.3813,1.3813,1.3815,1.3854,1.3864,1.3885,1.384,1.384,1.3841,0,1.3964,1.3957,1.3966,1.3947,1.3945,1.3948,1.3938,1.3936,1.3922,1.3913,1.3906,1.3889,1.3888,1.3871,1.3869,1.3861,1.3857,1.3849,1.3849,1.3846,1.3828,1.385,1.3892,1.3894,1.3845,1.3845,1.3844,0,1.4003,1.3996,1.3999,1.3994,1.3973,1.3974,1.3965,1.3951,1.3947,1.3937,1.3934,1.3925,1.392,1.3912,1.3892,1.3882,1.3891,1.3874,1.3882,1.3882,1.3884,1.3884,1.3924,1.3885,1.3884,1.3884,1.3884,0,1.4038,1.4044,1.4015,1.4017,1.4022,1.4,1.4004,1.3993,1.398,1.3978,1.3956,1.3954,1.3929,1.3924,1.3909,1.3907,1.3906,1.3897,1.3892,1.3898,1.3899,1.3894,1.3891,1.3885,1.3885,1.3885,1.3885,0,1.4082,1.4063,1.4065,1.4044,1.4038,1.4042,1.4024,1.4023,1.4009,1.4006,1.4005,1.3982,1.3974,1.3954,1.3942,1.3931,1.3934,1.3927,1.3938,1.3935,1.3944,1.3942,1.398,1.3983,1.3944,1.3944,1.3945,0,1.4104,1.4108,1.4087,1.4084,1.4075,1.4071,1.4066,1.4044,1.4039,1.4023,1.4024,1.4014,1.4006,1.3994,1.3976,1.3966,1.3957,1.3971,1.3955,1.396,1.3954,1.3954,1.3953,1.3974,1.3974,1.3975,1.3975,0,1.4146,1.4136,1.413,1.4119,1.4114,1.4105,1.4094,1.4093,1.4068,1.4063,1.4055,1.4048,1.4034,1.4024,1.401,1.4,1.3982,1.398,1.3981,1.3986,1.3992,1.3986,1.3945,1.3979,1.3979,1.3979,1.3978,1.3978,1.4178,1.4179,1.4163,1.4156,1.4146,1.4136,1.4134,1.4119,1.4112,1.4099,1.4086,1.4078,1.4062,1.4042,1.4032,1.4025,1.4016,1.4018,1.4018,1.4019,1.402,1.3994,1.4022,1.4022,1.4022,1.4022,1.4022,0,1.4216,1.4205,1.4198,1.4184,1.4177,1.4162,1.4149,1.4144,1.4138,1.4125,1.4116,1.4105,1.4095,1.4075,1.4063,1.406,1.4052,1.4058,1.4057,1.4054,1.403,1.4029,1.4065,1.4065,1.4065,1.4065,1.4065,1.4065,1.4235,1.4235,1.4223,1.4216,1.4204,1.4196,1.419,1.4179,1.4168,1.4157,1.4148,1.4136,1.4119,1.4105,1.4094,1.4088,1.4083,1.4091,1.4083,1.406,1.4056,1.4052,1.4051,1.4091,1.4091,1.4108,1.4108,1.4108]},{"header":{"parameterUnit":"m.s-1","parameterCategory":1,"la1":30.2991,"la2":30.254,"lo1":-89.0895,"lo2":-89.0444,"dy":0.0017,"dx":0.0017,"nx":28,"ny":28,"refTime":"2023-09-23T09:00:00:Z","depth":0,"parameterNumber":3,"parameterNumberName":"V-component_of_WINDS"},"data":[0,0,0,0,0,0,0,0,0,0,0,0,0,0,0,0,0,0,0,0,0,0,0,0,0,0,0,0,0,0,0,0,0,0,0,0,0,0,0,0,0,0,0,0,0,0,0,0,0,0,0,0,0,0,0,0,0,0,1.7333,1.7333,0,1.731,1.731,1.731,1.7244,1.7243,1.7242,1.724,1.7215,1.7216,1.7217,0,0,0,0,0,0,0,0,0,0,0,0,0,1.7318,1.7319,1.7333,1.7333,1.7333,1.731,1.731,1.731,1.7245,1.7243,1.7241,1.724,1.7215,1.7216,1.7217,0,0,0,0,0,0,0,0,0,0,0,0,0,1.7313,1.7319,1.7333,1.7298,1.7294,1.731,1.731,1.731,1.7245,1.7243,1.7241,1.7239,1.7215,1.7216,1.7217,1.7265,0,0,1.722,1.722,0,0,0,0,0,0,0,0,1.7313,1.7313,1.7303,1.73,1.7296,1.7278,1.7295,1.7295,1.7246,1.7264,1.724,1.7238,1.7238,1.7237,1.7237,1.7264,1.7263,1.722,1.7221,1.7221,1.7221,0,0,0,0,0,0,0,1.7314,1.7314,1.7324,1.7303,1.7299,1.7282,1.7279,1.7295,1.7263,1.7262,1.7257,1.7255,1.7236,1.7236,1.7236,1.7263,1.722,1.7221,1.7221,1.7222,1.7325,1.7327,0,0,0,0,0,0,1.7319,1.7315,1.7325,1.7323,1.73,1.7284,1.728,1.7286,1.7263,1.7257,1.7257,1.7252,1.7236,1.7235,1.7235,1.7288,1.7221,1.7222,1.7222,1.7322,1.7325,1.7327,0,0,0,0,0,0,1.7319,1.7321,1.7326,1.7318,1.7317,1.7286,1.7293,1.7287,1.7287,1.7259,1.7253,1.7264,1.7234,1.7234,1.7257,1.7286,1.7222,1.7223,1.732,1.7323,1.7326,1.7395,0,0,0,0,0,0,1.7319,1.7321,1.7341,1.7319,1.7318,1.735,1.7295,1.7288,1.7289,1.7283,1.7264,1.7259,1.7232,1.7256,1.7259,1.7286,1.7224,1.7317,1.7321,1.7325,1.739,1.74,1.7409,0,0,0,0,0,1.7319,1.7361,1.7342,1.7343,1.7341,1.7352,1.7351,1.7321,1.7292,1.731,1.7291,1.7259,1.7283,1.7259,1.7261,1.729,1.7315,1.732,1.7325,1.7386,1.7398,1.7409,0,0,0,0,0,0,1.7388,1.7358,1.7336,1.7373,1.7365,1.7341,1.7363,1.7335,1.7335,1.7329,1.7291,1.7287,1.7316,1.7305,1.728,1.7333,1.7293,1.7299,1.7339,1.7351,1.736,1.7361,1.7225,0,0,0,0,0,1.7407,1.7419,1.7392,1.7427,1.7424,1.7395,1.7398,1.7375,1.7365,1.7362,1.7345,1.7336,1.7341,1.7346,1.7349,1.7388,1.7382,1.7409,1.7418,1.7426,1.7431,1.7447,1.7458,1.7343,1.7343,1.7343,0,0,1.7448,1.7433,1.7443,1.7441,1.7432,1.7444,1.7392,1.7408,1.7416,1.7364,1.7385,1.7372,1.736,1.7391,1.7404,1.7383,1.7461,1.7432,1.7439,1.7439,1.7454,1.7464,1.7474,1.7346,1.7346,1.7345,0,0,1.7526,1.7518,1.7544,1.7536,1.7524,1.7503,1.7509,1.7489,1.7478,1.7498,1.7459,1.7467,1.7478,1.747,1.7467,1.754,1.7509,1.7542,1.7591,1.7608,1.7617,1.7625,1.7648,1.7658,1.7547,1.7547,1.7547,0,1.7578,1.7595,1.7562,1.7579,1.7578,1.7531,1.7556,1.755,1.754,1.7539,1.7516,1.7526,1.7515,1.7542,1.7559,1.756,1.7564,1.7544,1.7618,1.7626,1.7633,1.7655,1.7664,1.7551,1.7551,1.755,1.755,0,1.7658,1.767,1.7693,1.7683,1.7684,1.7706,1.7674,1.768,1.7656,1.7637,1.7657,1.7641,1.7639,1.7644,1.7621,1.7667,1.7654,1.7626,1.7584,1.7648,1.7668,1.7676,1.7557,1.7555,1.7554,1.7553,0,0,1.778,1.775,1.7758,1.7752,1.7733,1.7741,1.776,1.7757,1.7762,1.7755,1.7768,1.7777,1.7749,1.7746,1.7722,1.7737,1.7792,1.7706,1.7705,1.772,1.7838,1.7859,1.787,1.7772,1.7774,1.7775,1.7839,0,1.7853,1.7883,1.7852,1.7887,1.7896,1.7851,1.7866,1.7856,1.7838,1.7842,1.7823,1.7828,1.7793,1.779,1.7803,1.7783,1.7815,1.7778,1.7782,1.7782,1.7785,1.788,1.7903,1.7964,1.7847,1.7848,1.7849,0,1.7943,1.7939,1.7975,1.7952,1.7954,1.7969,1.7963,1.7968,1.7954,1.794,1.7935,1.7905,1.7919,1.788,1.7898,1.7873,1.7873,1.7862,1.7864,1.7862,1.7819,1.7879,1.7983,1.7992,1.7861,1.786,1.7859,0,1.8025,1.803,1.8051,1.8048,1.8021,1.8032,1.8021,1.8005,1.8005,1.7999,1.7998,1.7995,1.7992,1.799,1.7959,1.7933,1.7979,1.7938,1.7966,1.7967,1.7977,1.7977,1.8081,1.798,1.798,1.798,1.7979,0,1.8109,1.8133,1.8088,1.8101,1.8125,1.8088,1.8113,1.8097,1.8083,1.8091,1.8052,1.806,1.8019,1.8023,1.7998,1.8015,1.8015,1.8003,1.7996,1.8005,1.8007,1.8004,1.7998,1.7982,1.7981,1.7981,1.7981,0,1.8206,1.8177,1.8197,1.817,1.8163,1.8182,1.8158,1.8168,1.8147,1.8157,1.8158,1.8125,1.8126,1.8095,1.8091,1.8074,1.8101,1.8087,1.8106,1.8101,1.813,1.8127,1.8234,1.8246,1.814,1.8141,1.8142,0,1.8261,1.8277,1.8251,1.8253,1.8244,1.8249,1.8248,1.8212,1.8213,1.8196,1.8208,1.8206,1.8203,1.8207,1.8182,1.8177,1.8162,1.82,1.8161,1.8169,1.816,1.8159,1.8159,1.8208,1.8209,1.821,1.8211,0,1.836,1.8344,1.8344,1.8339,1.8338,1.8333,1.8324,1.8328,1.8288,1.829,1.8291,1.8289,1.8283,1.8281,1.8271,1.8259,1.8228,1.8224,1.8229,1.8239,1.8248,1.8241,1.8126,1.8221,1.822,1.8219,1.8219,1.8218,1.8435,1.8447,1.8429,1.843,1.842,1.8412,1.8419,1.8399,1.8399,1.8391,1.837,1.8374,1.8356,1.834,1.833,1.8332,1.8313,1.8322,1.8324,1.8327,1.8331,1.8249,1.833,1.833,1.833,1.8329,1.8329,0,1.853,1.8517,1.8518,1.8506,1.8506,1.8477,1.8465,1.8467,1.8471,1.8458,1.8454,1.8454,1.8451,1.8425,1.8419,1.8425,1.841,1.8424,1.8423,1.842,1.835,1.8344,1.8436,1.8436,1.8436,1.8436,1.8436,1.8436,1.858,1.8597,1.8579,1.8589,1.8575,1.8578,1.8574,1.8566,1.8554,1.8556,1.8553,1.8536,1.8517,1.8508,1.8504,1.8496,1.8494,1.8513,1.85,1.8435,1.8425,1.8415,1.841,1.8513,1.8514,1.857,1.857,1.8571]}]]